Abingdon, VA

7:00 PM EDT on June 26, 2017 (GMT -0400)
Virginia Highlands

Weather History for KVJI - February, 2013

Change the Weather History Date:

Sunday, February 10, 2013

  Actual Average (KTRI) Record (KTRI)
Temperature  
Mean Temperature 46 °F -  
Max Temperature 61 °F 46 °F 73 °F (1939)
Min Temperature 32 °F 23 °F 1 °F (1979)
Degree Days  
Heating Degree Days 18    
Moisture  
Dew Point 27 °F    
Average Humidity 51    
Maximum Humidity 96    
Minimum Humidity 19    
Precipitation  
Precipitation 0.19 in - - ()
Sea Level Pressure  
Sea Level Pressure 30.18 in    
Wind  
Wind Speed 8 mph (ESE)    
Max Wind Speed 16 mph    
Max Gust Speed 21 mph    
Visibility 10 miles    
Events Rain    
Averages and records for this station are not official NWS values.
T = Trace of Precipitation, MM = Missing Value Source: NWS Daily Summary

Daily Weather History Graph

Daily Weather History Graph

Search for Another Location

Airport or City:

Trip Planner

Search our weather history database for the weather conditions in past years. The results will help you decide how hot, cold, wet, or windy it might be!

Date:

Astronomy

Feb. 10, 2013 Rise Set
Actual Time 7:21 AM EST 6:03 PM EST
Civil Twilight 6:54 AM EST 6:30 PM EST
Nautical Twilight 6:24 AM EST 7:00 PM EST
Astronomical Twilight 5:54 AM EST 7:31 PM EST
Moon 7:12 AM EST (2/10) 6:50 PM EST (2/10)
Length of Visible Light 11h 35m
Length of Day
10h 42m
New Moon, 0% of the Moon is Illuminated
Feb 10
New Moon
Feb 17
First Quarter
Feb 25
Full
Mar 4
Last Quarter
Mar 11
New

Hourly Weather History & Observations

Time (EST) Temp. Windchill Dew Point Humidity Pressure Visibility Wind Dir Wind Speed Gust Speed Precip Events Conditions
12:15 AM 33.3 °F 27.1 °F 23.4 °F 67% 30.24 in 10.0 mi East 6.9 mph - N/A   Clear
12:35 AM 33.4 °F 26.6 °F 23.0 °F 66% 30.24 in 10.0 mi East 8.1 mph - N/A   Clear
12:55 AM 32.7 °F 27.3 °F 23.0 °F 67% 30.25 in 10.0 mi East 5.8 mph - N/A   Clear
1:15 AM 34.9 °F 29.0 °F 22.8 °F 61% 30.24 in 10.0 mi East 6.9 mph - N/A   Clear
1:35 AM 36.5 °F 29.7 °F 22.3 °F 56% 30.24 in 10.0 mi East 9.2 mph - N/A   Clear
1:55 AM 36.5 °F 30.3 °F 21.9 °F 56% 30.24 in 10.0 mi East 8.1 mph - N/A   Clear
2:15 AM 36.7 °F 31.2 °F 21.9 °F 55% 30.24 in 10.0 mi East 6.9 mph - N/A   Clear
2:35 AM 35.4 °F 30.5 °F 22.8 °F 60% 30.24 in 10.0 mi East 5.8 mph - N/A   Clear
2:55 AM 36.9 °F - 21.2 °F 53% 30.25 in 10.0 mi Calm Calm - N/A   Clear
3:15 AM 36.9 °F 30.7 °F 21.7 °F 54% 30.24 in 10.0 mi East 8.1 mph - N/A   Clear
3:35 AM 39.2 °F 34.2 °F 21.2 °F 49% 30.24 in 10.0 mi East 6.9 mph - N/A   Clear
3:55 AM 39.6 °F 34.0 °F 21.6 °F 49% 30.23 in 10.0 mi ENE 8.1 mph - N/A   Clear
4:15 AM 39.4 °F 34.5 °F 21.9 °F 50% 30.23 in 10.0 mi East 6.9 mph - N/A   Clear
4:35 AM 39.6 °F 34.7 °F 22.1 °F 50% 30.23 in 10.0 mi ENE 6.9 mph - N/A   Clear
5:15 AM 40.1 °F 34.7 °F 21.9 °F 48% 30.23 in 10.0 mi East 8.1 mph - N/A   Clear
5:35 AM 41.0 °F 35.2 °F 21.9 °F 47% 30.23 in 10.0 mi East 9.2 mph - N/A   Clear
5:55 AM 41.4 °F 36.8 °F 21.9 °F 46% 30.24 in 10.0 mi East 6.9 mph - N/A   Scattered Clouds
6:15 AM 41.5 °F 37.8 °F 21.7 °F 45% 30.25 in 10.0 mi ENE 5.8 mph - N/A   Scattered Clouds
6:35 AM 41.4 °F 36.2 °F 22.1 °F 46% 30.25 in 10.0 mi East 8.1 mph - N/A   Clear
6:55 AM 41.7 °F 38.0 °F 22.1 °F 46% 30.25 in 10.0 mi ENE 5.8 mph - N/A   Mostly Cloudy
7:15 AM 41.2 °F 36.6 °F 22.1 °F 47% 30.26 in 10.0 mi East 6.9 mph - N/A   Overcast
7:35 AM 40.6 °F 34.8 °F 22.5 °F 48% 30.27 in 10.0 mi East 9.2 mph - N/A   Mostly Cloudy
7:55 AM 41.5 °F 35.9 °F 22.1 °F 46% 30.28 in 10.0 mi East 9.2 mph - N/A   Scattered Clouds
8:15 AM 41.4 °F 35.2 °F 22.8 °F 48% 30.27 in 10.0 mi East 10.4 mph - N/A   Clear
8:35 AM 41.9 °F 35.0 °F 22.8 °F 47% 30.26 in 10.0 mi East 12.7 mph - N/A   Clear
9:15 AM 42.8 °F 35.8 °F 23.7 °F 47% 30.27 in 10.0 mi East 13.8 mph - N/A   Clear
9:35 AM 43.9 °F 37.9 °F 23.4 °F 44% 30.28 in 10.0 mi East 11.5 mph - N/A   Clear
9:55 AM 45.9 °F 39.4 °F 24.1 °F 42% 30.27 in 10.0 mi East 15.0 mph - N/A   Clear
10:15 AM 46.8 °F - 25.2 °F 43% 30.27 in 10.0 mi East 10.4 mph - N/A   Clear
10:35 AM 48.7 °F - 25.3 °F 40% 30.26 in 10.0 mi East 12.7 mph - N/A   Clear
11:15 AM 52.3 °F - 26.2 °F 36% 30.25 in 10.0 mi East 8.1 mph - N/A   Clear
11:35 AM 54.9 °F - 27.0 °F 34% 30.24 in 10.0 mi East 8.1 mph - N/A   Clear
12:15 PM 59.4 °F - 20.5 °F 22% 30.20 in 10.0 mi South 10.4 mph - N/A   Clear
12:35 PM 59.9 °F - 19.9 °F 21% 30.19 in 10.0 mi South 12.7 mph 17.3 mph N/A   Clear
12:55 PM 60.1 °F - 19.2 °F 21% 30.18 in 10.0 mi South 8.1 mph - N/A   Clear
1:15 PM 61.0 °F - 20.1 °F 21% 30.17 in 10.0 mi South 10.4 mph - N/A   Clear
1:35 PM 60.6 °F - 18.1 °F 19% 30.16 in 10.0 mi SSW 13.8 mph - N/A   Clear
1:55 PM 60.8 °F - 20.3 °F 21% 30.14 in 10.0 mi South 12.7 mph 18.4 mph N/A   Clear
2:15 PM 60.1 °F - 20.3 °F 22% 30.11 in 10.0 mi South 11.5 mph - N/A   Clear
2:35 PM 58.3 °F - 19.8 °F 22% 30.12 in 10.0 mi South 10.4 mph - N/A   Clear
2:55 PM 58.1 °F - 19.9 °F 23% 30.13 in 10.0 mi South 9.2 mph - N/A   Clear
3:15 PM 58.5 °F - 20.7 °F 23% 30.12 in 10.0 mi SSW 10.4 mph - N/A   Mostly Cloudy
3:35 PM 58.1 °F - 17.8 °F 21% 30.11 in 10.0 mi SSW 12.7 mph - N/A   Mostly Cloudy
3:55 PM 58.1 °F - 17.4 °F 20% 30.10 in 10.0 mi SSW 16.1 mph 20.7 mph N/A   Scattered Clouds
4:15 PM 57.6 °F - 18.5 °F 22% 30.10 in 10.0 mi South 6.9 mph 10.4 mph N/A   Scattered Clouds
4:35 PM 56.5 °F - 21.0 °F 25% 30.10 in 10.0 mi South 11.5 mph - N/A   Scattered Clouds
4:55 PM 55.4 °F - 20.3 °F 25% 30.11 in 10.0 mi South 10.4 mph - N/A   Mostly Cloudy
5:15 PM 54.9 °F - 20.8 °F 27% 30.11 in 10.0 mi SSW 8.1 mph - N/A   Clear
5:35 PM 55.2 °F - 20.3 °F 26% 30.12 in 10.0 mi SSW 15.0 mph 18.4 mph N/A   Scattered Clouds
5:55 PM 54.5 °F - 23.7 °F 30% 30.14 in 10.0 mi SW 10.4 mph 17.3 mph N/A   Scattered Clouds
6:15 PM 53.6 °F - 27.3 °F 36% 30.15 in 10.0 mi SW 11.5 mph - N/A Rain Light Rain
6:35 PM 48.4 °F - 34.9 °F 60% 30.16 in 7.0 mi SSW 9.2 mph - 0.04 in Rain Rain
6:55 PM 46.4 °F 43.5 °F 38.5 °F 74% 30.16 in 10.0 mi South 5.8 mph - 0.08 in Rain Rain
7:15 PM 45.9 °F - 40.1 °F 80% 30.16 in 10.0 mi Calm Calm - 0.03 in Rain Rain
7:35 PM 44.6 °F 41.4 °F 41.9 °F 90% 30.14 in 10.0 mi ESE 5.8 mph - 0.06 in Rain Rain
7:55 PM 44.6 °F 40.7 °F 42.3 °F 91% 30.13 in 10.0 mi ESE 6.9 mph - 0.08 in Rain Rain
8:15 PM 43.9 °F 38.3 °F 42.8 °F 96% 30.08 in 10.0 mi ESE 10.4 mph - 0.03 in Rain Light Rain
8:35 PM 44.8 °F 41.6 °F 42.8 °F 93% 30.09 in 10.0 mi ENE 5.8 mph - 0.03 in   Light Drizzle
8:55 PM 45.0 °F 42.6 °F 43.2 °F 93% 30.07 in 10.0 mi ENE 4.6 mph - 0.03 in   Overcast
9:15 PM 45.5 °F 41.8 °F 43.0 °F 91% 30.09 in 10.0 mi NE 6.9 mph - N/A   Overcast
9:35 PM 46.0 °F 43.9 °F 43.7 °F 92% 30.08 in 10.0 mi ESE 4.6 mph - N/A   Overcast
10:15 PM 50.7 °F - 44.6 °F 80% 30.07 in 10.0 mi East 5.8 mph - N/A   Clear
10:35 PM 47.8 °F - 44.1 °F 87% 30.06 in 10.0 mi ESE 3.5 mph - N/A   Clear
10:55 PM 49.3 °F - 44.6 °F 84% 30.05 in 10.0 mi South 4.6 mph - N/A   Clear
11:15 PM 49.1 °F - 44.8 °F 85% 30.04 in 10.0 mi ESE 3.5 mph - N/A   Mostly Cloudy
11:35 PM 48.7 °F - 44.4 °F 85% 30.03 in 10.0 mi Calm Calm - N/A   Scattered Clouds
11:55 PM 48.2 °F - 44.6 °F 87% 30.02 in 10.0 mi Calm Calm - N/A   Clear